Terminal Aerodrome Forecast
Issued by NWS Sterling, VA

Current Version | Previous Version | Text Only | Print | Product List | Glossary Off
Versions: 1 2 3 4 5 6 7 8 9 10 11 12 13 14 15 16 17 18 19 20 21 22 23 24 25 26 27 28

000
FTUS41 KLWX 210900 AAA
TAFIAD
TAF AMD
KIAD 210942Z 2110/2212 12007KT 6SM -RA BR SCT009 BKN040 OVC060
     FM211500 10005KT P6SM SCT040 OVC090=

USA.gov is the U.S. government's official web portal to all federal, state and local government web resources and services.